Find Starlink 34693

NORAD ID: 64793 Int'l Des: 2025-150 Owner: SPXS Country: US Constellation: starlink operational
LEOCIRCULAR

Aktuelle Ansicht

3D-Globus wird geladen...

Über Starlink 34693

Beschreibung wird geladen...

Nächste Überflüge

Passes for default location (London). Set your location on the main map for personalized predictions.

Höhenverlauf

Loading altitude history...

Zweizeiliger Elementsatz

1 64793U 25150D 26149.54608837 .00002738 00000-0 23714-3 0 9995
2 64793 70.0007 290.7702 0003248 265.2736 94.8052 14.98335385 48627
Epoch: 29. Mai 2026 • Age: 11 hours

Aktueller Status

Höhe 574.5 km
Geschwindigkeit 7.57 km/s
Subsatellitenpunkt 2.64°N, 38°E
Startdatum 16. Juli 2025
Alter 0.8 years
Typ internet

Technische Details

Klassifizierung Payload
Masse 575.00 kg
Trockenmasse 530.00 kg
Gesamtmasse 575.00 kg
Länge 0.30 m
Durchmesser 4.10 m
Spannweite 29.00 m
Form Box + pan
Hersteller SPXS
Bus-Typ Starlink V2MO
Phasenstatus In Orbit
Besitzer/Staat SPXS/US

Most Searched